User: anonymous   Login
Location: Falniów
(50.3639°N, 19.9642°E)
Time: 18:44:25
(UTC+00:00)
Language:

Cosmos 540 Rocket - Orbit

View from above orbital plane
View from above orbital plane
View from above satellite
View from above satellite

Ground track
Ground track

The orbit is defined by the following mean orbital elements,

1 06324U          26067.87341432 +.00000000 +00000-0 +11523-3 0 00006
2 06324  74.0774 315.7648 0008599 347.0231  13.0705 14.45279227    00
Epoch (UTC): 08 March 2026 20:57:42
Eccentricity: 0.0008599
inclination: 74.0774°
perigee height: 735 km
apogee height: 747 km
right ascension of ascending node: 315.7648°
argument of perigee: 347.0231°
revolutions per day: 14.45279227
mean anomaly at epoch: 13.0705°

The dashed part of the orbit path shows where the satellite is in the earth's shadow,  

DLR